Flag for U.S.A. Weather past 2 weeks in Cape Coral, Florida, U.S.A.

Now
74 °F

Sunny.


Feels Like: 71 °F
Forecast: 73 / 82 °F
Wind: 3 mph from East

Location: Page Field

Current Time: Jun 2, 2015 at 9:46:32 AM

Latest Report: Jun 2, 2015 at 8:53 AM


Visibility: 10 mi

Pressure: 30.01 "Hg

Humidity: 94%

Dew point: 72 °F

Location of Cape CoralLocation

Historic Weather in Cape Coral — Graph

°F

Cape Coral temperature yesterday

Maximum temperature yesterday: 91 °F (at 1:53 PM)
Minimum temperature yesterday: 72 °F (at 5:53 AM)
Average temperature yesterday: 79 °F

Past Weeks' High & Low Weather Summary

 TemperatureHumidityPressure
High93 °F (May 22, 1:53 PM)100% (May 24, 3:53 AM)30.20 "Hg (May 24, 3:53 AM)
Low67 °F (May 29, 4:53 AM)32% (May 27, 4:53 PM)29.94 "Hg (May 20, 5:53 PM)
Average80 °F72%30.07 "Hg
* Reported May 18 8:53 AM — Jun 2 8:53 AM, Cape Coral, Weather by CustomWeather, © 2015

Note: Actual official high and low records may vary slightly from our data, if they occured in-between our weather recording intervals... More about our weather records

Advertising

Cape Coral weather history for previous 24 hours

 ConditionsComfort  
Time TempWeatherWind HumidityBarometerVisibility
8:53 AM
Tue, Jun 2
74 °FSunny.3 mph94%30.01 "Hg10 mi
7:53 AM73 °FSunny.3 mph94%30.01 "Hg10 mi
6:53 AM72 °FClear.3 mph97%30.00 "Hg10 mi
5:53 AM71 °FClear.3 mph96%29.98 "Hg10 mi
4:53 AM71 °FClear.5 mph96%29.98 "Hg10 mi
3:53 AM72 °FClear.5 mph97%29.98 "Hg10 mi
2:53 AM72 °FClear.7 mph93%29.99 "Hg10 mi
1:53 AM72 °FLight rain. Partly cloudy.5 mph97%30.01 "Hg10 mi
12:53 AM73 °FLight rain. Fog.12 mph94%30.06 "Hg6 mi
11:00 PM
Mon, Jun 1
74 °FMostly cloudy.8 mph85%30.06 "Hg10 mi
9:53 PM74 °FPartly cloudy.8 mph91%30.06 "Hg10 mi
8:53 PM74 °FSunny.5 mph91%30.03 "Hg10 mi
7:53 PM75 °FThundershowers. Passing clouds.No wind90%30.01 "Hg10 mi
6:53 PM74 °FThunderstorms. Mostly cloudy.13 mph82%30.01 "Hg5 mi
5:53 PM86 °FPartly sunny.5 mph61%29.99 "Hg10 mi
4:53 PM88 °FThundershowers. Partly sunny.10 mph55%29.98 "Hg10 mi
3:53 PM89 °FSunny.9 mph55%29.99 "Hg10 mi
2:53 PM88 °FScattered clouds.13 mph57%30.01 "Hg10 mi
1:53 PM91 °FPassing clouds.6 mph47%30.04 "Hg10 mi
12:53 PM88 °FScattered clouds.6 mph55%30.06 "Hg10 mi
11:53 AM87 °FScattered clouds.No wind59%30.07 "Hg10 mi
10:53 AM84 °FSunny.5 mph67%30.08 "Hg10 mi
9:53 AM81 °FSunny.6 mph74%30.08 "Hg10 mi
Weather by CustomWeather, © 2015

See weather overviewHow to use our weather pages